Meridian Naval Air Station Meridian US
ICAO: KNMM
IATA: NMM
Category: Medium
Scheduled Services: No

Elevation: 316 ft
TransAlt. 18000 ft.

Airport Communications:
APP:119.2
ATIS:27.32
CLNC DEL:30.1
DEP:124.8
MC CAIN GND:33.64
BASE OPS:35.22
PMSV METRO:31.24
MC CAIN TWR:126.2

KNMM Zoom In..

If you have problems with the map follow the link
https://www.worldairports.se/pages/airport.php?
ICAO=KNMM

Runways:

(A) RW 01L length 8003 ft width 200 ft
---- / hdg 8

(B) RW 01R length 8001 ft width 200 ft
---- / hdg 8

(C) RW 10 length 6402 ft width 200 ft
---- / hdg 98

(D) RW 19L length 8001 ft width 200 ft
ILS 109.70 / hdg 188

(E) RW 19R length 8003 ft width 200 ft
---- / hdg 188

(F) RW 28 length 6402 ft width 200 ft
---- / hdg 278

Location; KNMM
Day. 24 / Time. 07.56 Zulu
* Altimeter: 29.97
* Temperature: 02° c. 35.6°f.
* Wind from: 320° Speed 09 kn.
Dewpoint: 01° c.
Visibility: 9 Statute Miles.
Clouds: Overcast 900 ft.

KNMM 240756Z AUTO 32009KT 9SM OVC009 02/01 A2997 RMK AO2 SLP161 T00220011 $


Wind From 320°
Speed 09 kn.

 
 
jpsmedia.com for Web Design worldairports.se 2019   terms of use